{"data":{"norad_id":60602,"epoch":"2026-05-25T04:04:10.968960Z","epoch_age_seconds":60169,"freshness":"FRESH","line1":"1 60602U 24150V   26145.16957140  .00000973  00000+0  39939-4 0  9992","line2":"2 60602  53.1623 310.8715 0001013  99.0265 261.0852 15.34388015 99681","mean_motion":15.34388015,"eccentricity":0.0001013,"inclination_deg":53.1623,"raan_deg":310.8715,"arg_perigee_deg":99.0265,"mean_anomaly_deg":261.0852,"bstar":3.9939e-5,"rev_number":9968,"period_min":93.848491119764,"perigee_km":462.04588165984,"apogee_km":463.43184310956,"semimajor_km":6840.8758623847,"source":"CELESTRAK","updated_at":"2026-05-25T13:38:19.282534Z"}}